[[{"header":{"parameterUnit":"m.s-1","parameterCategory":1,"la1":30.2991,"la2":30.254,"lo1":-89.0895,"lo2":-89.0444,"dy":0.0017,"dx":0.0017,"nx":28,"ny":28,"refTime":"2025-09-09T09:00:00:Z","depth":0,"parameterNumber":2,"parameterNumberName":"U-component_of_WINDS"},"data":[0,0,0,0,0,0,0,0,0,0,0,0,0,0,0,0,0,0,0,0,0,0,0,0,0,0,0,0,0,0,0,0,0,0,0,0,0,0,0,0,0,0,0,0,0,0,0,0,0,0,0,0,0,0,0,0,0,0,-3.5236,-3.5238,0,-3.5362,-3.5364,-3.5365,-3.5239,-3.5234,-3.5229,-3.5224,-3.5358,-3.5365,-3.5374,0,0,0,0,0,0,0,0,0,0,0,0,0,-3.4891,-3.4898,-3.5236,-3.5238,-3.5239,-3.5362,-3.5364,-3.5366,-3.524,-3.5234,-3.5228,-3.5222,-3.5355,-3.5365,-3.5374,0,0,0,0,0,0,0,0,0,0,0,0,0,-3.5031,-3.49,-3.5236,-3.5191,-3.5189,-3.5362,-3.5364,-3.5366,-3.5241,-3.5234,-3.5226,-3.5219,-3.5352,-3.5364,-3.5376,-3.56,0,0,-3.5413,-3.5418,0,0,0,0,0,0,0,0,-3.5023,-3.5044,-3.5196,-3.5195,-3.5192,-3.5277,-3.529,-3.5445,-3.5243,-3.5222,-3.5224,-3.5216,-3.5337,-3.535,-3.539,-3.5606,-3.5612,-3.5414,-3.5422,-3.5427,-3.543,0,0,0,0,0,0,0,-3.5014,-3.5038,-3.5286,-3.5199,-3.5196,-3.5166,-3.5178,-3.5319,-3.532,-3.5223,-3.5214,-3.523,-3.5335,-3.5379,-3.5392,-3.5614,-3.5414,-3.5425,-3.5432,-3.5437,-3.6022,-3.603,0,0,0,0,0,0,-3.5009,-3.5031,-3.5282,-3.529,-3.5088,-3.5179,-3.5192,-3.5258,-3.5318,-3.532,-3.5237,-3.5224,-3.5361,-3.5378,-3.5397,-3.5665,-3.5427,-3.5438,-3.5445,-3.6014,-3.6024,-3.6033,0,0,0,0,0,0,-3.5002,-3.5032,-3.5277,-3.5158,-3.5187,-3.5192,-3.5267,-3.5264,-3.5308,-3.5328,-3.5328,-3.5281,-3.5356,-3.5379,-3.5551,-3.5668,-3.5444,-3.5455,-3.6004,-3.6017,-3.6029,-3.6203,0,0,0,0,0,0,-3.4992,-3.503,-3.5115,-3.5161,-3.5194,-3.5429,-3.5274,-3.5272,-3.5329,-3.5314,-3.537,-3.5372,-3.5352,-3.5533,-3.5563,-3.5681,-3.5464,-3.5994,-3.601,-3.6025,-3.6187,-3.622,-3.6248,0,0,0,0,0,-3.498,-3.516,-3.512,-3.5151,-3.5299,-3.5435,-3.5454,-3.5426,-3.5339,-3.5425,-3.5438,-3.5371,-3.5649,-3.5552,-3.5584,-3.5707,-3.5987,-3.6006,-3.6023,-3.6173,-3.6213,-3.6247,0,0,0,0,0,0,-3.5129,-3.5165,-3.5121,-3.532,-3.5376,-3.5414,-3.5521,-3.5469,-3.5552,-3.5534,-3.5497,-3.5511,-3.5693,-3.5716,-3.5607,-3.5928,-3.5804,-3.583,-3.5907,-3.5945,-3.5975,-3.5966,-3.5475,0,0,0,0,0,-3.5184,-3.5291,-3.5317,-3.549,-3.552,-3.5516,-3.5574,-3.5548,-3.5604,-3.5627,-3.5653,-3.5711,-3.5812,-3.5879,-3.5973,-3.6188,-3.62,-3.6289,-3.632,-3.6345,-3.6368,-3.6486,-3.6527,-3.6094,-3.6093,-3.6093,0,0,-3.5301,-3.5334,-3.5404,-3.5521,-3.5561,-3.5673,-3.5537,-3.5661,-3.5745,-3.5646,-3.581,-3.5831,-3.5893,-3.6088,-3.6175,-3.6114,-3.649,-3.6368,-3.6388,-3.6398,-3.6509,-3.655,-3.6587,-3.6106,-3.6104,-3.6102,0,0,-3.5572,-3.5606,-3.5755,-3.5798,-3.5859,-3.5855,-3.5891,-3.5937,-3.5947,-3.611,-3.6039,-3.6138,-3.6312,-3.636,-3.6407,-3.6696,-3.6638,-3.6727,-3.6888,-3.7003,-3.7037,-3.7067,-3.7173,-3.721,-3.675,-3.6751,-3.6751,0,-3.571,-3.5875,-3.5839,-3.5969,-3.6023,-3.5938,-3.6089,-3.6132,-3.6222,-3.6263,-3.6191,-3.6408,-3.6444,-3.665,-3.6721,-3.6761,-3.6802,-3.6722,-3.7035,-3.7065,-3.7092,-3.7192,-3.7232,-3.6761,-3.676,-3.6759,-3.6758,0,-3.6043,-3.6159,-3.6272,-3.636,-3.6426,-3.6567,-3.6553,-3.6625,-3.6592,-3.6597,-3.6765,-3.6804,-3.6905,-3.6952,-3.6921,-3.7154,-3.7114,-3.704,-3.6915,-3.7145,-3.7238,-3.7276,-3.6777,-3.6773,-3.677,-3.6767,0,0,-3.6413,-3.6478,-3.652,-3.656,-3.6621,-3.671,-3.6847,-3.6944,-3.7008,-3.7072,-3.7188,-3.7336,-3.7268,-3.7322,-3.7296,-3.7397,-3.7625,-3.731,-3.7311,-3.7369,-3.7887,-3.7944,-3.7989,-3.7586,-3.7593,-3.7599,-3.7882,0,-3.6687,-3.6923,-3.6894,-3.7121,-3.7229,-3.7149,-3.7268,-3.7319,-3.7327,-3.742,-3.7428,-3.7535,-3.7436,-3.7468,-3.7564,-3.7577,-3.7729,-3.7556,-3.7695,-3.7701,-3.7685,-3.8037,-3.8098,-3.8364,-3.7918,-3.7924,-3.7929,0,-3.7039,-3.7115,-3.7353,-3.7398,-3.7442,-3.755,-3.7637,-3.7726,-3.7783,-3.7781,-3.7842,-3.7798,-3.7937,-3.7807,-3.7998,-3.7881,-3.7936,-3.7952,-3.7961,-3.7975,-3.7831,-3.8063,-3.8447,-3.8488,-3.7985,-3.7981,-3.7977,0,-3.7288,-3.745,-3.7613,-3.7649,-3.7705,-3.7783,-3.781,-3.7859,-3.792,-3.7996,-3.8036,-3.8128,-3.8179,-3.8252,-3.8235,-3.8142,-3.8432,-3.83,-3.8437,-3.8438,-3.8504,-3.85,-3.8905,-3.8535,-3.8535,-3.8534,-3.8533,0,-3.7599,-3.7748,-3.7726,-3.7827,-3.7992,-3.7957,-3.8122,-3.8139,-3.8183,-3.8287,-3.8223,-3.8322,-3.8292,-3.8391,-3.8378,-3.854,-3.8563,-3.8567,-3.8563,-3.8575,-3.8575,-3.8612,-3.8594,-3.8544,-3.8542,-3.854,-3.8538,0,-3.7906,-3.7897,-3.807,-3.8108,-3.8122,-3.8242,-3.8275,-3.8371,-3.8372,-3.8505,-3.8534,-3.8537,-3.8649,-3.8639,-3.8765,-3.8757,-3.8958,-3.893,-3.8939,-3.8934,-3.9072,-3.906,-3.9516,-3.9575,-3.9166,-3.9169,-3.9173,0,-3.8106,-3.8219,-3.8269,-3.8334,-3.8366,-3.8471,-3.8532,-3.8502,-3.8569,-3.8642,-3.873,-3.8835,-3.8919,-3.9102,-3.9117,-3.9213,-3.9189,-3.9342,-3.9203,-3.9212,-3.9194,-3.9189,-3.9201,-3.9371,-3.9375,-3.9379,-3.9382,0,-3.8463,-3.8453,-3.8543,-3.8633,-3.8708,-3.8777,-3.884,-3.8896,-3.8873,-3.8951,-3.9065,-3.9129,-3.9258,-3.9365,-3.9456,-3.9485,-3.9432,-3.9425,-3.9462,-3.9477,-3.9479,-3.9482,-3.9016,-3.9416,-3.9412,-3.941,-3.9408,-3.9407,-3.8725,-3.8822,-3.8873,-3.8976,-3.9019,-3.9079,-3.9171,-3.9184,-3.9278,-3.9379,-3.9356,-3.9484,-3.9539,-3.9656,-3.9694,-3.9795,-3.974,-3.9793,-3.9807,-3.9821,-3.9838,-3.946,-3.9811,-3.981,-3.9809,-3.9808,-3.9808,0,-3.9081,-3.9109,-3.9204,-3.9293,-3.9375,-3.9314,-3.9381,-3.9454,-3.9567,-3.9621,-3.9705,-3.9836,-3.9939,-3.9961,-4.006,-4.0137,-4.0115,-4.0164,-4.016,-4.0168,-3.9881,-3.984,-4.018,-4.018,-4.018,-4.018,-4.018,-4.018,-3.9276,-3.9437,-3.9433,-3.9616,-3.9643,-3.9768,-3.9811,-3.9867,-3.991,-4.0059,-4.0144,-4.0157,-4.0199,-4.0301,-4.0393,-4.0397,-4.0438,-4.0498,-4.0493,-4.0225,-4.0188,-4.0152,-4.0114,-4.0506,-4.0507,-4.0771,-4.0774,-4.0775]},{"header":{"parameterUnit":"m.s-1","parameterCategory":1,"la1":30.2991,"la2":30.254,"lo1":-89.0895,"lo2":-89.0444,"dy":0.0017,"dx":0.0017,"nx":28,"ny":28,"refTime":"2025-09-09T09:00:00:Z","depth":0,"parameterNumber":3,"parameterNumberName":"V-component_of_WINDS"},"data":[0,0,0,0,0,0,0,0,0,0,0,0,0,0,0,0,0,0,0,0,0,0,0,0,0,0,0,0,0,0,0,0,0,0,0,0,0,0,0,0,0,0,0,0,0,0,0,0,0,0,0,0,0,0,0,0,0,0,-2.2381,-2.238,0,-2.2319,-2.2318,-2.2317,-2.2308,-2.2308,-2.2309,-2.2309,-2.2241,-2.2238,-2.2236,0,0,0,0,0,0,0,0,0,0,0,0,0,-2.2485,-2.2483,-2.2381,-2.238,-2.2379,-2.2319,-2.2318,-2.2317,-2.2307,-2.2308,-2.2309,-2.231,-2.2241,-2.2239,-2.2236,0,0,0,0,0,0,0,0,0,0,0,0,0,-2.2433,-2.2483,-2.2381,-2.2367,-2.2366,-2.2319,-2.2318,-2.2317,-2.2307,-2.2308,-2.2309,-2.231,-2.2242,-2.2239,-2.2235,-2.2196,0,0,-2.2225,-2.2223,0,0,0,0,0,0,0,0,-2.2436,-2.2429,-2.237,-2.2368,-2.2366,-2.2322,-2.2329,-2.2276,-2.2307,-2.2329,-2.2309,-2.231,-2.2267,-2.2261,-2.2247,-2.2193,-2.219,-2.2224,-2.2222,-2.2221,-2.222,0,0,0,0,0,0,0,-2.244,-2.2432,-2.2356,-2.2369,-2.2367,-2.2362,-2.2356,-2.2319,-2.2294,-2.2327,-2.2327,-2.232,-2.2266,-2.2251,-2.2246,-2.2189,-2.2224,-2.2221,-2.2219,-2.2218,-2.2095,-2.2094,0,0,0,0,0,0,-2.2446,-2.2435,-2.2358,-2.2354,-2.2404,-2.236,-2.2352,-2.2335,-2.2294,-2.2289,-2.2319,-2.2319,-2.2257,-2.225,-2.2243,-2.2192,-2.2221,-2.2217,-2.2215,-2.2096,-2.2095,-2.2093,0,0,0,0,0,0,-2.2449,-2.244,-2.2361,-2.2394,-2.2384,-2.2357,-2.2338,-2.2333,-2.2319,-2.2288,-2.2283,-2.2309,-2.2257,-2.2248,-2.2207,-2.2189,-2.2216,-2.2213,-2.2097,-2.2095,-2.2094,-2.209,0,0,0,0,0,0,-2.2452,-2.2441,-2.2427,-2.2394,-2.2382,-2.2328,-2.2337,-2.2332,-2.2313,-2.2313,-2.2277,-2.2272,-2.2257,-2.2213,-2.2204,-2.2185,-2.221,-2.2099,-2.2096,-2.2094,-2.2091,-2.2088,-2.2085,0,0,0,0,0,-2.2456,-2.2429,-2.2427,-2.2418,-2.2365,-2.2327,-2.232,-2.2305,-2.2312,-2.2297,-2.2276,-2.2273,-2.2193,-2.2209,-2.2199,-2.2178,-2.21,-2.2097,-2.2095,-2.2093,-2.2089,-2.2085,0,0,0,0,0,0,-2.246,-2.2424,-2.2422,-2.2384,-2.2358,-2.2325,-2.2306,-2.2302,-2.2273,-2.2274,-2.2255,-2.2246,-2.2205,-2.2188,-2.2206,-2.2136,-2.2147,-2.2142,-2.2149,-2.2145,-2.2142,-2.2146,-2.2207,0,0,0,0,0,-2.2456,-2.243,-2.24,-2.2369,-2.2357,-2.2334,-2.2316,-2.2307,-2.2279,-2.2268,-2.2245,-2.2217,-2.2184,-2.2164,-2.2133,-2.2089,-2.2079,-2.207,-2.2067,-2.2065,-2.206,-2.2031,-2.2025,-2.2085,-2.2085,-2.2085,0,0,-2.2449,-2.2426,-2.2411,-2.2369,-2.2349,-2.2319,-2.2325,-2.2294,-2.2271,-2.2263,-2.2222,-2.2204,-2.2171,-2.2127,-2.2107,-2.2111,-2.2041,-2.2061,-2.206,-2.2056,-2.2028,-2.2022,-2.2017,-2.2083,-2.2083,-2.2084,0,0,-2.242,-2.2402,-2.2372,-2.2351,-2.2319,-2.2304,-2.2297,-2.2264,-2.2251,-2.2211,-2.2203,-2.2174,-2.2121,-2.2096,-2.2077,-2.2035,-2.2029,-2.2025,-2.2009,-2.1981,-2.1976,-2.1971,-2.1953,-2.1947,-2.2021,-2.2021,-2.2021,0,-2.2414,-2.2371,-2.2357,-2.2326,-2.2306,-2.2298,-2.2266,-2.2246,-2.2205,-2.219,-2.2197,-2.2127,-2.2104,-2.2053,-2.2042,-2.2028,-2.2016,-2.2029,-2.1978,-2.1974,-2.1969,-2.1951,-2.1944,-2.2021,-2.2021,-2.2021,-2.2021,0,-2.2364,-2.2334,-2.2313,-2.2275,-2.2253,-2.2222,-2.22,-2.2179,-2.217,-2.2153,-2.2109,-2.2082,-2.2043,-2.2031,-2.2023,-2.1977,-2.198,-2.1983,-2.1992,-2.1963,-2.1945,-2.1939,-2.202,-2.202,-2.202,-2.2021,0,0,-2.2336,-2.2289,-2.2281,-2.2261,-2.2225,-2.22,-2.2167,-2.213,-2.2111,-2.2083,-2.2051,-2.2005,-2.2006,-2.1984,-2.1972,-2.1948,-2.1911,-2.1953,-2.1951,-2.1943,-2.1854,-2.185,-2.1843,-2.1908,-2.1907,-2.1906,-2.1855,0,-2.23,-2.2242,-2.2227,-2.2176,-2.2146,-2.2136,-2.2106,-2.2079,-2.2061,-2.2031,-2.2011,-2.1977,-2.1983,-2.1969,-2.1944,-2.1921,-2.1893,-2.1925,-2.1875,-2.1874,-2.1881,-2.1834,-2.1831,-2.1785,-2.1849,-2.1848,-2.1847,0,-2.2252,-2.2222,-2.2168,-2.2132,-2.2118,-2.2092,-2.2055,-2.2028,-2.1995,-2.1983,-2.1957,-2.1947,-2.1908,-2.1922,-2.1865,-2.1887,-2.1866,-2.1851,-2.1849,-2.1841,-2.1857,-2.1822,-2.177,-2.1762,-2.1837,-2.1838,-2.1838,0,-2.2233,-2.2179,-2.2139,-2.2123,-2.2081,-2.2062,-2.2043,-2.2011,-2.1989,-2.1956,-2.194,-2.1903,-2.1882,-2.1852,-2.183,-2.1843,-2.1774,-2.1787,-2.176,-2.176,-2.1744,-2.1745,-2.1685,-2.1736,-2.1736,-2.1736,-2.1737,0,-2.2193,-2.2159,-2.213,-2.2105,-2.2066,-2.2047,-2.2008,-2.1989,-2.196,-2.1928,-2.1918,-2.1888,-2.1863,-2.1829,-2.1812,-2.1765,-2.1757,-2.1744,-2.1739,-2.1743,-2.1744,-2.1727,-2.1728,-2.1735,-2.1735,-2.1735,-2.1736,0,-2.2165,-2.2144,-2.2099,-2.2062,-2.2052,-2.2024,-2.1991,-2.1964,-2.1946,-2.1906,-2.1895,-2.1865,-2.1824,-2.18,-2.1748,-2.1736,-2.1683,-2.1682,-2.1695,-2.1692,-2.1665,-2.1666,-2.1589,-2.1576,-2.1639,-2.1638,-2.1638,0,-2.214,-2.2114,-2.2073,-2.2052,-2.2033,-2.1999,-2.1975,-2.1955,-2.193,-2.1889,-2.1866,-2.1825,-2.179,-2.1724,-2.1696,-2.1655,-2.165,-2.1626,-2.1644,-2.1647,-2.1645,-2.1645,-2.164,-2.1622,-2.1621,-2.1621,-2.162,0,-2.2097,-2.2087,-2.2054,-2.2017,-2.1989,-2.1958,-2.1928,-2.191,-2.1884,-2.1856,-2.1814,-2.1788,-2.1734,-2.1691,-2.1647,-2.1624,-2.1616,-2.1615,-2.1606,-2.1608,-2.1615,-2.1607,-2.1682,-2.1616,-2.1617,-2.1617,-2.1617,-2.1618,-2.2067,-2.2042,-2.2008,-2.1971,-2.1945,-2.1916,-2.1888,-2.1865,-2.183,-2.1785,-2.1775,-2.1729,-2.1692,-2.1633,-2.1609,-2.1571,-2.1575,-2.1563,-2.1559,-2.1555,-2.1552,-2.1623,-2.1563,-2.1563,-2.1563,-2.1563,-2.1563,0,-2.202,-2.1997,-2.1963,-2.192,-2.1889,-2.1886,-2.1851,-2.1825,-2.1785,-2.1753,-2.1718,-2.1667,-2.1624,-2.1592,-2.1547,-2.1523,-2.1517,-2.1511,-2.1511,-2.1505,-2.1553,-2.1564,-2.1516,-2.1516,-2.1516,-2.1516,-2.1516,-2.1516,-2.1992,-2.1947,-2.1932,-2.1873,-2.185,-2.1806,-2.1786,-2.1757,-2.173,-2.1674,-2.1639,-2.1618,-2.1584,-2.1536,-2.1495,-2.1486,-2.1469,-2.1462,-2.1452,-2.1497,-2.1502,-2.1507,-2.1517,-2.146,-2.146,-2.1407,-2.1406,-2.1406]}]]